Time,TemperatureF,DewpointF,PressureIn,WindDirection,WindDirectionDegrees,WindSpeedMPH,WindSpeedGustMPH,Humidity,HourlyPrecipIn,Conditions,Clouds,dailyrainin,SoftwareType,DateUTC
2013-12-03 00:01:00,27.0,27.0,30.00,East,90,6.0,12.0,100,0.00,,,0.00,Weather View 32 v70,2013-12-03 07:01:00,
2013-12-03 00:06:00,27.0,27.0,30.00,East,90,6.0,12.0,100,0.00,,,0.00,Weather View 32 v70,2013-12-03 07:06:00,
2013-12-03 00:11:00,27.0,27.0,30.00,ENE,67,5.0,12.0,100,0.00,,,0.00,Weather View 32 v70,2013-12-03 07:11:00,
2013-12-03 00:16:00,27.0,27.0,29.99,ENE,67,7.0,13.0,100,0.00,,,0.00,Weather View 32 v70,2013-12-03 07:16:00,
2013-12-03 00:21:00,27.0,27.0,29.99,East,90,8.0,13.0,100,0.00,,,0.00,Weather View 32 v70,2013-12-03 07:21:00,
2013-12-03 00:26:00,27.0,27.0,29.99,East,90,9.0,13.0,100,0.00,,,0.00,Weather View 32 v70,2013-12-03 07:26:00,
2013-12-03 00:31:00,27.0,27.0,29.99,East,90,7.0,13.0,100,0.00,,,0.00,Weather View 32 v70,2013-12-03 07:31:00,
2013-12-03 00:36:00,27.0,27.0,29.98,East,90,8.0,13.0,100,0.00,,,0.00,Weather View 32 v70,2013-12-03 07:36:00,
2013-12-03 00:41:00,27.0,27.0,29.98,ENE,67,9.0,13.0,100,0.00,,,0.00,Weather View 32 v70,2013-12-03 07:41:00,
2013-12-03 00:46:00,27.0,27.0,29.98,East,90,4.0,13.0,100,0.00,,,0.00,Weather View 32 v70,2013-12-03 07:46:00,
2013-12-03 00:51:00,27.0,27.0,29.98,East,90,6.0,13.0,100,0.00,,,0.00,Weather View 32 v70,2013-12-03 07:51:00,
2013-12-03 00:56:00,27.0,27.0,29.98,East,90,4.0,13.0,100,0.00,,,0.00,Weather View 32 v70,2013-12-03 07:56:00,
2013-12-03 01:01:00,27.0,27.0,29.98,ENE,67,5.0,13.0,100,0.00,,,0.00,Weather View 32 v70,2013-12-03 08:01:00,
2013-12-03 01:06:00,27.0,27.0,29.97,East,90,6.0,13.0,100,0.00,,,0.00,Weather View 32 v70,2013-12-03 08:06:00,
2013-12-03 01:11:00,27.0,27.0,29.97,East,90,6.0,13.0,100,0.00,,,0.00,Weather View 32 v70,2013-12-03 08:11:00,
2013-12-03 01:16:00,27.0,27.0,29.96,East,90,5.0,13.0,100,0.00,,,0.00,Weather View 32 v70,2013-12-03 08:16:00,
2013-12-03 01:21:00,27.0,27.0,29.96,East,90,5.0,13.0,100,0.00,,,0.00,Weather View 32 v70,2013-12-03 08:21:00,
2013-12-03 01:26:00,27.0,27.0,29.96,East,90,6.0,13.0,100,0.00,,,0.00,Weather View 32 v70,2013-12-03 08:26:00,
2013-12-03 01:31:00,27.0,27.0,29.96,East,90,9.0,13.0,100,0.00,,,0.00,Weather View 32 v70,2013-12-03 08:31:00,
2013-12-03 01:36:00,27.0,27.0,29.96,East,90,6.0,13.0,100,0.00,,,0.00,Weather View 32 v70,2013-12-03 08:36:00,
2013-12-03 01:41:00,27.0,27.0,29.96,East,90,6.0,11.0,100,0.00,,,0.00,Weather View 32 v70,2013-12-03 08:41:00,
2013-12-03 01:46:00,27.0,27.0,29.96,East,90,8.0,13.0,100,0.00,,,0.00,Weather View 32 v70,2013-12-03 08:46:00,
2013-12-03 01:51:00,27.0,27.0,29.96,East,90,11.0,14.0,100,0.00,,,0.00,Weather View 32 v70,2013-12-03 08:51:00,
2013-12-03 01:56:00,27.0,27.0,29.95,East,90,11.0,14.0,100,0.00,,,0.00,Weather View 32 v70,2013-12-03 08:56:00,
2013-12-03 02:01:00,27.0,27.0,29.95,East,90,9.0,14.0,100,0.00,,,0.00,Weather View 32 v70,2013-12-03 09:01:00,
2013-12-03 02:06:00,28.0,28.0,29.94,East,90,14.0,14.0,100,0.00,,,0.00,Weather View 32 v70,2013-12-03 09:06:00,
2013-12-03 02:11:00,28.0,28.0,29.94,East,90,8.0,14.0,100,0.00,,,0.00,Weather View 32 v70,2013-12-03 09:11:00,
2013-12-03 02:16:00,28.0,28.0,29.94,East,90,10.0,14.0,100,0.00,,,0.00,Weather View 32 v70,2013-12-03 09:16:00,
2013-12-03 02:21:00,28.0,28.0,29.94,East,90,9.0,14.0,100,0.00,,,0.00,Weather View 32 v70,2013-12-03 09:21:00,
2013-12-03 02:26:00,28.0,28.0,29.94,East,90,7.0,14.0,100,0.00,,,0.00,Weather View 32 v70,2013-12-03 09:26:00,
2013-12-03 02:30:00,28.0,28.0,29.94,East,90,9.0,14.0,100,0.00,,,0.00,Weather View 32 v70,2013-12-03 09:30:00,
2013-12-03 02:36:00,28.0,28.0,29.94,East,90,12.0,14.0,100,0.00,,,0.00,Weather View 32 v70,2013-12-03 09:36:00,
2013-12-03 02:40:00,28.0,28.0,29.94,East,90,6.0,14.0,100,0.00,,,0.00,Weather View 32 v70,2013-12-03 09:40:00,
2013-12-03 02:45:00,28.0,28.0,29.93,East,90,7.0,14.0,100,0.00,,,0.00,Weather View 32 v70,2013-12-03 09:45:00,
2013-12-03 02:50:00,28.0,28.0,29.93,East,90,10.0,18.0,100,0.00,,,0.00,Weather View 32 v70,2013-12-03 09:50:00,
2013-12-03 02:55:00,28.0,28.0,29.93,East,90,5.0,18.0,100,0.00,,,0.00,Weather View 32 v70,2013-12-03 09:55:00,
2013-12-03 03:00:00,28.0,28.0,29.93,East,90,7.0,18.0,100,0.00,,,0.00,Weather View 32 v70,2013-12-03 10:00:00,
2013-12-03 03:05:00,28.0,28.0,29.93,East,90,10.0,18.0,100,0.00,,,0.00,Weather View 32 v70,2013-12-03 10:05:00,
2013-12-03 03:10:00,27.0,27.0,29.93,East,90,10.0,18.0,100,0.00,,,0.00,Weather View 32 v70,2013-12-03 10:10:00,
2013-12-03 03:15:00,27.0,27.0,29.93,East,90,9.0,18.0,100,0.00,,,0.00,Weather View 32 v70,2013-12-03 10:15:00,
2013-12-03 03:20:00,27.0,27.0,29.93,East,90,6.0,18.0,100,0.00,,,0.00,Weather View 32 v70,2013-12-03 10:20:00,
2013-12-03 03:25:00,27.0,27.0,29.92,East,90,10.0,18.0,100,0.00,,,0.00,Weather View 32 v70,2013-12-03 10:25:00,
2013-12-03 03:30:00,27.0,27.0,29.92,East,90,8.0,18.0,100,0.00,,,0.00,Weather View 32 v70,2013-12-03 10:30:00,
2013-12-03 03:35:00,27.0,27.0,29.92,East,90,9.0,18.0,100,0.00,,,0.00,Weather View 32 v70,2013-12-03 10:35:00,
2013-12-03 03:40:00,27.0,27.0,29.92,East,90,12.0,18.0,100,0.00,,,0.00,Weather View 32 v70,2013-12-03 10:40:00,
2013-12-03 03:45:00,27.0,27.0,29.92,ESE,112,8.0,18.0,100,0.00,,,0.00,Weather View 32 v70,2013-12-03 10:45:00,
2013-12-03 03:50:00,27.0,27.0,29.92,East,90,6.0,13.0,100,0.00,,,0.00,Weather View 32 v70,2013-12-03 10:50:00,
2013-12-03 03:55:00,27.0,27.0,29.91,East,90,9.0,13.0,100,0.00,,,0.00,Weather View 32 v70,2013-12-03 10:55:00,
2013-12-03 04:00:00,27.0,27.0,29.91,East,90,6.0,13.0,100,0.00,,,0.00,Weather View 32 v70,2013-12-03 11:00:00,
2013-12-03 04:05:00,27.0,27.0,29.91,East,90,6.0,13.0,100,0.00,,,0.00,Weather View 32 v70,2013-12-03 11:05:00,
2013-12-03 04:10:00,27.0,27.0,29.91,East,90,7.0,13.0,100,0.00,,,0.00,Weather View 32 v70,2013-12-03 11:10:00,
2013-12-03 04:15:00,27.0,27.0,29.91,East,90,5.0,13.0,100,0.00,,,0.00,Weather View 32 v70,2013-12-03 11:15:00,
2013-12-03 04:20:00,27.0,27.0,29.91,East,90,4.0,13.0,100,0.00,,,0.00,Weather View 32 v70,2013-12-03 11:20:00,
2013-12-03 04:25:00,27.0,27.0,29.92,East,90,4.0,13.0,100,0.00,,,0.00,Weather View 32 v70,2013-12-03 11:25:00,
2013-12-03 04:30:00,26.0,26.0,29.92,East,90,4.0,13.0,100,0.00,,,0.00,Weather View 32 v70,2013-12-03 11:30:00,
2013-12-03 04:35:00,26.0,26.0,29.92,East,90,5.0,13.0,100,0.00,,,0.00,Weather View 32 v70,2013-12-03 11:35:00,
2013-12-03 04:40:00,26.0,26.0,29.92,East,90,3.0,13.0,100,0.00,,,0.00,Weather View 32 v70,2013-12-03 11:40:00,
2013-12-03 04:45:00,26.0,26.0,29.92,East,90,3.0,11.0,100,0.00,,,0.00,Weather View 32 v70,2013-12-03 11:45:00,
2013-12-03 04:50:00,26.0,26.0,29.92,East,90,6.0,11.0,100,0.00,,,0.00,Weather View 32 v70,2013-12-03 11:50:00,
2013-12-03 04:55:00,26.0,26.0,29.92,East,90,3.0,11.0,100,0.00,,,0.00,Weather View 32 v70,2013-12-03 11:55:00,
2013-12-03 05:00:00,26.0,26.0,29.92,East,90,7.0,10.0,100,0.00,,,0.00,Weather View 32 v70,2013-12-03 12:00:00,
2013-12-03 05:05:00,26.0,26.0,29.91,East,90,3.0,10.0,100,0.00,,,0.00,Weather View 32 v70,2013-12-03 12:05:00,
2013-12-03 05:10:00,26.0,26.0,29.91,East,90,5.0,10.0,100,0.00,,,0.00,Weather View 32 v70,2013-12-03 12:10:00,
2013-12-03 05:15:00,26.0,26.0,29.91,East,90,4.0,10.0,100,0.00,,,0.00,Weather View 32 v70,2013-12-03 12:15:00,
2013-12-03 05:20:00,26.0,26.0,29.91,East,90,1.0,10.0,100,0.00,,,0.00,Weather View 32 v70,2013-12-03 12:20:00,
2013-12-03 05:25:00,25.0,25.0,29.91,East,90,4.0,8.0,100,0.00,,,0.00,Weather View 32 v70,2013-12-03 12:25:00,
2013-12-03 05:30:00,25.0,25.0,29.91,East,90,3.0,8.0,100,0.00,,,0.00,Weather View 32 v70,2013-12-03 12:30:00,
2013-12-03 05:35:00,25.0,25.0,29.90,East,90,4.0,8.0,100,0.00,,,0.00,Weather View 32 v70,2013-12-03 12:35:00,
2013-12-03 05:40:00,25.0,25.0,29.90,East,90,4.0,8.0,100,0.00,,,0.00,Weather View 32 v70,2013-12-03 12:40:00,
2013-12-03 05:45:00,25.0,25.0,29.90,East,90,6.0,8.0,100,0.00,,,0.00,Weather View 32 v70,2013-12-03 12:45:00,
2013-12-03 05:50:00,25.0,25.0,29.90,East,90,5.0,8.0,100,0.00,,,0.00,Weather View 32 v70,2013-12-03 12:50:00,
2013-12-03 05:55:00,25.0,25.0,29.90,East,90,7.0,9.0,100,0.00,,,0.00,Weather View 32 v70,2013-12-03 12:55:00,
2013-12-03 06:00:00,25.0,25.0,29.90,East,90,4.0,11.0,100,0.00,,,0.00,Weather View 32 v70,2013-12-03 13:00:00,
2013-12-03 06:05:00,26.0,26.0,29.90,East,90,6.0,11.0,100,0.00,,,0.00,Weather View 32 v70,2013-12-03 13:05:00,
2013-12-03 06:10:00,26.0,26.0,29.90,East,90,6.0,11.0,100,0.00,,,0.00,Weather View 32 v70,2013-12-03 13:10:00,
2013-12-03 06:15:00,26.0,26.0,29.90,East,90,5.0,11.0,100,0.00,,,0.00,Weather View 32 v70,2013-12-03 13:15:00,
2013-12-03 06:20:00,26.0,26.0,29.90,East,90,6.0,11.0,100,0.00,,,0.00,Weather View 32 v70,2013-12-03 13:20:00,
2013-12-03 06:25:00,26.0,26.0,29.90,East,90,6.0,11.0,100,0.00,,,0.00,Weather View 32 v70,2013-12-03 13:25:00,
2013-12-03 06:30:00,26.0,26.0,29.90,East,90,6.0,11.0,100,0.00,,,0.00,Weather View 32 v70,2013-12-03 13:30:00,
2013-12-03 06:35:00,26.0,26.0,29.90,East,90,3.0,11.0,100,0.00,,,0.00,Weather View 32 v70,2013-12-03 13:35:00,
2013-12-03 06:40:00,25.0,25.0,29.90,East,90,5.0,11.0,100,0.00,,,0.00,Weather View 32 v70,2013-12-03 13:40:00,
2013-12-03 06:45:00,26.0,26.0,29.90,East,90,5.0,11.0,100,0.00,,,0.00,Weather View 32 v70,2013-12-03 13:45:00,
2013-12-03 06:50:00,25.0,25.0,29.90,SE,135,1.0,11.0,100,0.00,,,0.00,Weather View 32 v70,2013-12-03 13:50:00,
2013-12-03 06:55:00,25.0,25.0,29.90,SE,135,4.0,11.0,100,0.00,,,0.00,Weather View 32 v70,2013-12-03 13:55:00,
2013-12-03 07:00:00,25.0,25.0,29.90,SE,135,0.0,10.0,100,0.00,,,0.00,Weather View 32 v70,2013-12-03 14:00:00,
2013-12-03 07:05:00,25.0,25.0,29.90,SE,135,0.0,10.0,100,0.00,,,0.00,Weather View 32 v70,2013-12-03 14:05:00,
2013-12-03 07:10:00,24.0,24.0,29.90,SE,135,0.0,10.0,100,0.00,,,0.00,Weather View 32 v70,2013-12-03 14:10:00,
2013-12-03 07:15:00,24.0,24.0,29.90,East,90,7.0,9.0,100,0.00,,,0.00,Weather View 32 v70,2013-12-03 14:15:00,
2013-12-03 07:20:00,24.0,24.0,29.90,East,90,1.0,9.0,100,0.00,,,0.00,Weather View 32 v70,2013-12-03 14:20:00,
2013-12-03 07:25:00,24.0,24.0,29.90,East,90,4.0,9.0,100,0.00,,,0.00,Weather View 32 v70,2013-12-03 14:25:00,
2013-12-03 07:30:00,24.0,24.0,29.90,East,90,5.0,9.0,100,0.00,,,0.00,Weather View 32 v70,2013-12-03 14:30:00,
2013-12-03 07:35:00,25.0,25.0,29.89,East,90,6.0,8.0,100,0.00,,,0.00,Weather View 32 v70,2013-12-03 14:35:00,
2013-12-03 07:40:00,25.0,25.0,29.89,East,90,4.0,8.0,100,0.00,,,0.00,Weather View 32 v70,2013-12-03 14:40:00,
2013-12-03 07:45:00,25.0,25.0,29.90,East,90,0.0,7.0,100,0.00,,,0.00,Weather View 32 v70,2013-12-03 14:45:00,
2013-12-03 07:50:00,25.0,25.0,29.90,East,90,4.0,7.0,100,0.00,,,0.00,Weather View 32 v70,2013-12-03 14:50:00,
2013-12-03 07:55:00,25.0,25.0,29.89,East,90,5.0,7.0,100,0.00,,,0.00,Weather View 32 v70,2013-12-03 14:55:00,
2013-12-03 08:00:00,25.0,25.0,29.89,East,90,4.0,7.0,100,0.00,,,0.00,Weather View 32 v70,2013-12-03 15:00:00,
2013-12-03 08:05:00,27.0,27.0,29.90,East,90,4.0,7.0,100,0.00,,,0.00,Weather View 32 v70,2013-12-03 15:05:00,
2013-12-03 08:10:00,27.0,27.0,29.90,East,90,4.0,7.0,100,0.00,,,0.00,Weather View 32 v70,2013-12-03 15:10:00,
2013-12-03 08:15:00,28.0,28.0,29.89,East,90,4.0,7.0,100,0.00,,,0.00,Weather View 32 v70,2013-12-03 15:15:00,
2013-12-03 08:20:00,28.0,28.0,29.89,East,90,5.0,7.0,100,0.00,,,0.00,Weather View 32 v70,2013-12-03 15:20:00,
2013-12-03 08:25:00,29.0,29.0,29.90,SE,135,6.0,8.0,100,0.00,,,0.00,Weather View 32 v70,2013-12-03 15:25:00,
2013-12-03 08:30:00,30.0,30.0,29.90,East,90,9.0,9.0,100,0.00,,,0.00,Weather View 32 v70,2013-12-03 15:30:00,
2013-12-03 08:35:00,31.0,29.2,29.89,East,90,5.0,10.0,93,0.00,,,0.00,Weather View 32 v70,2013-12-03 15:35:00,
2013-12-03 08:40:00,32.0,28.0,29.89,East,90,10.0,15.0,85,0.00,,,0.00,Weather View 32 v70,2013-12-03 15:40:00,
2013-12-03 08:45:00,33.0,27.2,29.88,ENE,67,12.0,15.0,79,0.00,,,0.00,Weather View 32 v70,2013-12-03 15:45:00,
2013-12-03 08:50:00,33.0,26.9,29.88,ESE,112,8.0,15.0,78,0.00,,,0.00,Weather View 32 v70,2013-12-03 15:50:00,
2013-12-03 08:55:00,34.0,27.2,29.89,East,90,5.0,15.0,76,0.00,,,0.00,Weather View 32 v70,2013-12-03 15:55:00,
2013-12-03 09:00:00,34.0,26.6,29.89,East,90,6.0,15.0,74,0.00,,,0.00,Weather View 32 v70,2013-12-03 16:00:00,
2013-12-03 09:05:00,35.0,26.9,29.89,East,90,10.0,15.0,72,0.00,,,0.00,Weather View 32 v70,2013-12-03 16:05:00,
2013-12-03 09:10:00,35.0,26.5,29.89,East,90,9.0,15.0,71,0.00,,,0.00,Weather View 32 v70,2013-12-03 16:10:00,
2013-12-03 09:15:00,36.0,27.2,29.89,ENE,67,11.0,15.0,70,0.00,,,0.00,Weather View 32 v70,2013-12-03 16:15:00,
2013-12-03 09:20:00,36.0,26.8,29.89,East,90,7.0,15.0,69,0.00,,,0.00,Weather View 32 v70,2013-12-03 16:20:00,
2013-12-03 09:25:00,37.0,26.7,29.88,ENE,67,11.0,15.0,66,0.00,,,0.00,Weather View 32 v70,2013-12-03 16:25:00,
2013-12-03 09:30:00,37.0,26.7,29.88,East,90,13.0,15.0,66,0.00,,,0.00,Weather View 32 v70,2013-12-03 16:30:00,
2013-12-03 09:35:00,37.0,26.3,29.88,East,90,7.0,15.0,65,0.00,,,0.00,Weather View 32 v70,2013-12-03 16:35:00,
2013-12-03 09:40:00,37.0,26.3,29.88,East,90,7.0,15.0,65,0.00,,,0.00,Weather View 32 v70,2013-12-03 16:40:00,
2013-12-03 09:45:00,38.0,26.5,29.88,East,90,10.0,15.0,63,0.00,,,0.00,Weather View 32 v70,2013-12-03 16:45:00,
2013-12-03 09:50:00,38.0,26.5,29.88,East,90,7.0,15.0,63,0.00,,,0.00,Weather View 32 v70,2013-12-03 16:50:00,
2013-12-03 09:55:00,39.0,27.1,29.87,East,90,12.0,15.0,62,0.00,,,0.00,Weather View 32 v70,2013-12-03 16:55:00,
2013-12-03 10:00:00,38.0,25.7,29.87,ENE,67,8.0,17.0,61,0.00,,,0.00,Weather View 32 v70,2013-12-03 17:00:00,
2013-12-03 10:05:00,39.0,26.7,29.87,East,90,11.0,17.0,61,0.00,,,0.00,Weather View 32 v70,2013-12-03 17:05:00,
2013-12-03 10:10:00,39.0,26.3,29.87,East,90,11.0,17.0,60,0.00,,,0.00,Weather View 32 v70,2013-12-03 17:10:00,
2013-12-03 10:15:00,40.0,26.8,29.87,East,90,11.0,17.0,59,0.00,,,0.00,Weather View 32 v70,2013-12-03 17:15:00,
2013-12-03 10:20:00,40.0,27.2,29.87,East,90,8.0,17.0,60,0.00,,,0.00,Weather View 32 v70,2013-12-03 17:20:00,
2013-12-03 10:25:00,41.0,26.9,29.86,East,90,10.0,17.0,57,0.00,,,0.00,Weather View 32 v70,2013-12-03 17:25:00,
2013-12-03 10:30:00,41.0,27.3,29.86,East,90,7.0,17.0,58,0.00,,,0.00,Weather View 32 v70,2013-12-03 17:30:00,
2013-12-03 10:35:00,42.0,27.4,29.86,East,90,8.0,17.0,56,0.00,,,0.00,Weather View 32 v70,2013-12-03 17:35:00,
2013-12-03 10:40:00,42.0,26.5,29.86,East,90,7.0,17.0,54,0.00,,,0.00,Weather View 32 v70,2013-12-03 17:40:00,
2013-12-03 10:45:00,42.0,26.5,29.85,East,90,9.0,17.0,54,0.00,,,0.00,Weather View 32 v70,2013-12-03 17:45:00,
2013-12-03 10:50:00,42.0,27.0,29.85,East,90,7.0,17.0,55,0.00,,,0.00,Weather View 32 v70,2013-12-03 17:50:00,
2013-12-03 10:55:00,42.0,26.5,29.85,East,90,8.0,17.0,54,0.00,,,0.00,Weather View 32 v70,2013-12-03 17:55:00,
2013-12-03 11:00:00,42.0,26.5,29.85,East,90,9.0,16.0,54,0.00,,,0.00,Weather View 32 v70,2013-12-03 18:00:00,
2013-12-03 11:05:00,43.0,26.6,29.84,SE,135,9.0,16.0,52,0.00,,,0.00,Weather View 32 v70,2013-12-03 18:05:00,
2013-12-03 11:10:00,43.0,26.1,29.84,East,90,9.0,16.0,51,0.00,,,0.00,Weather View 32 v70,2013-12-03 18:10:00,
2013-12-03 11:15:00,44.0,26.5,29.83,ESE,112,10.0,16.0,50,0.00,,,0.00,Weather View 32 v70,2013-12-03 18:15:00,
2013-12-03 11:20:00,43.0,25.6,29.83,East,90,4.0,16.0,50,0.00,,,0.00,Weather View 32 v70,2013-12-03 18:20:00,
2013-12-03 11:25:00,44.0,25.5,29.83,East,90,8.0,16.0,48,0.00,,,0.00,Weather View 32 v70,2013-12-03 18:25:00,
2013-12-03 11:30:00,45.0,26.5,29.83,East,90,6.0,16.0,48,0.00,,,0.00,Weather View 32 v70,2013-12-03 18:30:00,
2013-12-03 11:35:00,45.0,26.0,29.82,East,90,4.0,16.0,47,0.00,,,0.00,Weather View 32 v70,2013-12-03 18:35:00,
2013-12-03 11:40:00,45.0,26.0,29.82,ESE,112,9.0,16.0,47,0.00,,,0.00,Weather View 32 v70,2013-12-03 18:40:00,
2013-12-03 11:45:00,45.0,26.0,29.81,SE,135,6.0,16.0,47,0.00,,,0.00,Weather View 32 v70,2013-12-03 18:45:00,
2013-12-03 11:50:00,45.0,26.0,29.81,East,90,9.0,16.0,47,0.00,,,0.00,Weather View 32 v70,2013-12-03 18:50:00,
2013-12-03 11:55:00,46.0,25.8,29.80,East,90,8.0,16.0,45,0.00,,,0.00,Weather View 32 v70,2013-12-03 18:55:00,
2013-12-03 12:00:00,46.0,25.8,29.80,East,90,10.0,16.0,45,0.00,,,0.00,Weather View 32 v70,2013-12-03 19:00:00,
2013-12-03 12:05:00,46.0,25.3,29.79,East,90,8.0,16.0,44,0.00,,,0.00,Weather View 32 v70,2013-12-03 19:05:00,
2013-12-03 12:10:00,46.0,25.3,29.79,ESE,112,5.0,16.0,44,0.00,,,0.00,Weather View 32 v70,2013-12-03 19:10:00,
2013-12-03 12:15:00,46.0,24.7,29.78,East,90,7.0,14.0,43,0.00,,,0.00,Weather View 32 v70,2013-12-03 19:15:00,
2013-12-03 12:20:00,46.0,24.7,29.78,East,90,9.0,14.0,43,0.00,,,0.00,Weather View 32 v70,2013-12-03 19:20:00,
2013-12-03 12:25:00,47.0,25.6,29.78,East,90,8.0,14.0,43,0.00,,,0.00,Weather View 32 v70,2013-12-03 19:25:00,
2013-12-03 12:30:00,47.0,25.6,29.78,ESE,112,7.0,14.0,43,0.00,,,0.00,Weather View 32 v70,2013-12-03 19:30:00,
2013-12-03 12:35:00,47.0,25.1,29.78,East,90,4.0,14.0,42,0.00,,,0.00,Weather View 32 v70,2013-12-03 19:35:00,
2013-12-03 12:40:00,47.0,25.1,29.78,East,90,4.0,14.0,42,0.00,,,0.00,Weather View 32 v70,2013-12-03 19:40:00,
2013-12-03 12:45:00,48.0,24.8,29.76,SE,135,5.0,14.0,40,0.00,,,0.00,Weather View 32 v70,2013-12-03 19:45:00,
2013-12-03 12:50:00,48.0,24.8,29.76,East,90,6.0,14.0,40,0.00,,,0.00,Weather View 32 v70,2013-12-03 19:50:00,
2013-12-03 12:55:00,48.0,23.6,29.76,ENE,67,5.0,14.0,38,0.00,,,0.00,Weather View 32 v70,2013-12-03 19:55:00,
2013-12-03 13:00:00,49.0,24.5,29.76,East,90,6.0,13.0,38,0.00,,,0.00,Weather View 32 v70,2013-12-03 20:00:00,
2013-12-03 13:05:00,49.0,22.5,29.75,East,90,4.0,13.0,35,0.00,,,0.00,Weather View 32 v70,2013-12-03 20:05:00,
2013-12-03 13:10:00,49.0,22.5,29.75,SE,135,4.0,13.0,35,0.00,,,0.00,Weather View 32 v70,2013-12-03 20:10:00,
2013-12-03 13:15:00,50.0,23.4,29.74,East,90,5.0,13.0,35,0.00,,,0.00,Weather View 32 v70,2013-12-03 20:15:00,
2013-12-03 13:20:00,50.0,23.4,29.74,ENE,67,9.0,11.0,35,0.00,,,0.00,Weather View 32 v70,2013-12-03 20:20:00,
2013-12-03 13:25:00,50.0,23.4,29.73,East,90,9.0,11.0,35,0.00,,,0.00,Weather View 32 v70,2013-12-03 20:25:00,
2013-12-03 13:30:00,50.0,22.7,29.73,East,90,8.0,11.0,34,0.00,,,0.00,Weather View 32 v70,2013-12-03 20:30:00,
2013-12-03 13:35:00,50.0,23.4,29.72,East,90,8.0,13.0,35,0.00,,,0.00,Weather View 32 v70,2013-12-03 20:35:00,
2013-12-03 13:40:00,50.0,22.0,29.72,ESE,112,4.0,13.0,33,0.00,,,0.00,Weather View 32 v70,2013-12-03 20:40:00,
2013-12-03 13:45:00,50.0,21.2,29.72,ENE,67,7.0,13.0,32,0.00,,,0.00,Weather View 32 v70,2013-12-03 20:45:00,
2013-12-03 13:50:00,50.0,22.0,29.72,NE,45,5.0,13.0,33,0.00,,,0.00,Weather View 32 v70,2013-12-03 20:50:00,
2013-12-03 13:55:00,50.0,21.2,29.71,ENE,67,5.0,13.0,32,0.00,,,0.00,Weather View 32 v70,2013-12-03 20:55:00,
2013-12-03 14:00:00,50.0,22.0,29.71,NE,45,4.0,13.0,33,0.00,,,0.00,Weather View 32 v70,2013-12-03 21:00:00,
2013-12-03 14:05:00,51.0,22.1,29.71,NE,45,3.0,13.0,32,0.00,,,0.00,Weather View 32 v70,2013-12-03 21:05:00,
2013-12-03 14:10:00,51.0,22.1,29.71,SE,135,5.0,13.0,32,0.00,,,0.00,Weather View 32 v70,2013-12-03 21:10:00,
2013-12-03 14:15:00,51.0,21.4,29.70,NE,45,5.0,13.0,31,0.00,,,0.00,Weather View 32 v70,2013-12-03 21:15:00,
2013-12-03 14:20:00,51.0,21.4,29.70,NE,45,4.0,13.0,31,0.00,,,0.00,Weather View 32 v70,2013-12-03 21:20:00,
2013-12-03 14:25:00,52.0,21.5,29.70,NE,45,5.0,13.0,30,0.00,,,0.00,Weather View 32 v70,2013-12-03 21:25:00,
2013-12-03 14:30:00,51.0,22.1,29.70,ENE,67,9.0,13.0,32,0.00,,,0.00,Weather View 32 v70,2013-12-03 21:30:00,
2013-12-03 14:35:00,52.0,22.2,29.70,East,90,6.0,10.0,31,0.00,,,0.00,Weather View 32 v70,2013-12-03 21:35:00,
2013-12-03 14:40:00,52.0,22.2,29.70,SE,135,0.0,10.0,31,0.00,,,0.00,Weather View 32 v70,2013-12-03 21:40:00,
2013-12-03 14:45:00,52.0,22.2,29.69,SE,135,4.0,10.0,31,0.00,,,0.00,Weather View 32 v70,2013-12-03 21:45:00,
2013-12-03 14:50:00,52.0,22.2,29.69,ENE,67,8.0,10.0,31,0.00,,,0.00,Weather View 32 v70,2013-12-03 21:50:00,
2013-12-03 14:55:00,52.0,23.0,29.69,ENE,67,6.0,10.0,32,0.00,,,0.00,Weather View 32 v70,2013-12-03 21:55:00,
2013-12-03 15:00:00,52.0,22.2,29.69,ENE,67,6.0,10.0,31,0.00,,,0.00,Weather View 32 v70,2013-12-03 22:00:00,
2013-12-03 15:05:00,52.0,23.0,29.69,East,90,5.0,10.0,32,0.00,,,0.00,Weather View 32 v70,2013-12-03 22:05:00,
2013-12-03 15:10:00,52.0,22.2,29.69,ENE,67,2.0,10.0,31,0.00,,,0.00,Weather View 32 v70,2013-12-03 22:10:00,
2013-12-03 15:15:00,52.0,22.2,29.69,NE,45,5.0,10.0,31,0.00,,,0.00,Weather View 32 v70,2013-12-03 22:15:00,
2013-12-03 15:20:00,52.0,23.7,29.69,ENE,67,5.0,10.0,33,0.00,,,0.00,Weather View 32 v70,2013-12-03 22:20:00,
2013-12-03 15:25:00,52.0,22.2,29.69,East,90,5.0,10.0,31,0.00,,,0.00,Weather View 32 v70,2013-12-03 22:25:00,
2013-12-03 15:30:00,51.0,21.4,29.69,East,90,4.0,10.0,31,0.00,,,0.00,Weather View 32 v70,2013-12-03 22:30:00,
2013-12-03 15:35:00,52.0,22.2,29.69,East,90,3.0,10.0,31,0.00,,,0.00,Weather View 32 v70,2013-12-03 22:35:00,
2013-12-03 15:40:00,51.0,22.1,29.69,East,90,6.0,10.0,32,0.00,,,0.00,Weather View 32 v70,2013-12-03 22:40:00,
2013-12-03 15:45:00,51.0,21.4,29.68,ENE,67,8.0,10.0,31,0.00,,,0.00,Weather View 32 v70,2013-12-03 22:45:00,
2013-12-03 15:50:00,51.0,22.1,29.68,ENE,67,4.0,10.0,32,0.00,,,0.00,Weather View 32 v70,2013-12-03 22:50:00,
2013-12-03 15:55:00,51.0,21.4,29.68,ENE,67,6.0,10.0,31,0.00,,,0.00,Weather View 32 v70,2013-12-03 22:55:00,
2013-12-03 16:00:00,51.0,22.9,29.68,ENE,67,6.0,11.0,33,0.00,,,0.00,Weather View 32 v70,2013-12-03 23:00:00,
2013-12-03 16:05:00,51.0,22.9,29.68,NE,45,8.0,11.0,33,0.00,,,0.00,Weather View 32 v70,2013-12-03 23:05:00,
2013-12-03 16:10:00,51.0,23.6,29.68,ENE,67,5.0,11.0,34,0.00,,,0.00,Weather View 32 v70,2013-12-03 23:10:00,
2013-12-03 16:15:00,51.0,23.6,29.67,ENE,67,8.0,11.0,34,0.00,,,0.00,Weather View 32 v70,2013-12-03 23:15:00,
2013-12-03 16:20:00,50.0,21.2,29.67,ENE,67,5.0,14.0,32,0.00,,,0.00,Weather View 32 v70,2013-12-03 23:20:00,
2013-12-03 16:25:00,51.0,23.6,29.67,ENE,67,9.0,14.0,34,0.00,,,0.00,Weather View 32 v70,2013-12-03 23:25:00,
2013-12-03 16:30:00,50.0,22.7,29.67,ENE,67,9.0,14.0,34,0.00,,,0.00,Weather View 32 v70,2013-12-03 23:30:00,
2013-12-03 16:35:00,50.0,22.7,29.67,NE,45,5.0,14.0,34,0.00,,,0.00,Weather View 32 v70,2013-12-03 23:35:00,
2013-12-03 16:40:00,50.0,23.4,29.67,ENE,67,4.0,14.0,35,0.00,,,0.00,Weather View 32 v70,2013-12-03 23:40:00,
2013-12-03 16:45:00,50.0,22.7,29.67,NE,45,6.0,14.0,34,0.00,,,0.00,Weather View 32 v70,2013-12-03 23:45:00,
2013-12-03 16:50:00,49.0,22.5,29.67,ENE,67,5.0,14.0,35,0.00,,,0.00,Weather View 32 v70,2013-12-03 23:50:00,
2013-12-03 16:55:00,49.0,22.5,29.68,NE,45,6.0,14.0,35,0.00,,,0.00,Weather View 32 v70,2013-12-03 23:55:00,
2013-12-03 17:00:00,49.0,23.8,29.68,NE,45,5.0,14.0,37,0.00,,,0.00,Weather View 32 v70,2013-12-04 00:00:00,
2013-12-03 17:05:00,49.0,23.8,29.68,NNE,22,6.0,14.0,37,0.00,,,0.00,Weather View 32 v70,2013-12-04 00:05:00,
2013-12-03 17:10:00,48.0,23.6,29.68,North,360,3.0,14.0,38,0.00,,,0.00,Weather View 32 v70,2013-12-04 00:10:00,
2013-12-03 17:15:00,48.0,23.6,29.68,NNE,22,5.0,14.0,38,0.00,,,0.00,Weather View 32 v70,2013-12-04 00:15:00,
2013-12-03 17:20:00,48.0,23.6,29.68,NE,45,9.0,11.0,38,0.00,,,0.00,Weather View 32 v70,2013-12-04 00:20:00,
2013-12-03 17:25:00,48.0,22.9,29.68,East,90,7.0,11.0,37,0.00,,,0.00,Weather View 32 v70,2013-12-04 00:25:00,
2013-12-03 17:30:00,48.0,23.6,29.68,East,90,3.0,11.0,38,0.00,,,0.00,Weather View 32 v70,2013-12-04 00:30:00,
2013-12-03 17:35:00,48.0,22.9,29.67,ENE,67,9.0,11.0,37,0.00,,,0.00,Weather View 32 v70,2013-12-04 00:35:00,
2013-12-03 17:40:00,48.0,22.9,29.67,NE,45,7.0,11.0,37,0.00,,,0.00,Weather View 32 v70,2013-12-04 00:40:00,
2013-12-03 17:45:00,48.0,22.9,29.68,NE,45,3.0,11.0,37,0.00,,,0.00,Weather View 32 v70,2013-12-04 00:45:00,
2013-12-03 17:49:00,48.0,21.6,29.68,NE,45,12.0,12.0,35,0.00,,,0.00,Weather View 32 v70,2013-12-04 00:49:00,
2013-12-03 17:54:00,49.0,23.8,29.67,West,270,2.0,16.0,37,0.00,,,0.00,Weather View 32 v70,2013-12-04 00:54:00,
2013-12-03 17:59:00,49.0,23.2,29.67,North,360,0.0,16.0,36,0.00,,,0.00,Weather View 32 v70,2013-12-04 00:59:00,
2013-12-03 18:04:00,49.0,23.2,29.67,North,360,4.0,16.0,36,0.00,,,0.00,Weather View 32 v70,2013-12-04 01:04:00,
2013-12-03 18:09:00,49.0,23.2,29.67,East,90,7.0,16.0,36,0.00,,,0.00,Weather View 32 v70,2013-12-04 01:09:00,
2013-12-03 18:15:00,49.0,23.2,29.68,ENE,67,4.0,16.0,36,0.00,,,0.00,Weather View 32 v70,2013-12-04 01:15:00,
2013-12-03 18:20:00,48.0,22.9,29.68,ENE,67,8.0,16.0,37,0.00,,,0.00,Weather View 32 v70,2013-12-04 01:20:00,
2013-12-03 18:25:00,49.0,23.8,29.67,NE,45,9.0,16.0,37,0.00,,,0.00,Weather View 32 v70,2013-12-04 01:25:00,
2013-12-03 18:30:00,48.0,23.6,29.67,ESE,112,0.0,16.0,38,0.00,,,0.00,Weather View 32 v70,2013-12-04 01:30:00,
2013-12-03 18:35:00,48.0,23.6,29.67,ESE,112,0.0,16.0,38,0.00,,,0.00,Weather View 32 v70,2013-12-04 01:35:00,
2013-12-03 18:40:00,48.0,24.8,29.67,SSE,157,6.0,16.0,40,0.00,,,0.00,Weather View 32 v70,2013-12-04 01:40:00,
2013-12-03 18:45:00,48.0,24.2,29.67,East,90,6.0,16.0,39,0.00,,,0.00,Weather View 32 v70,2013-12-04 01:45:00,
2013-12-03 18:50:00,47.0,23.9,29.67,East,90,3.0,16.0,40,0.00,,,0.00,Weather View 32 v70,2013-12-04 01:50:00,
2013-12-03 18:55:00,47.0,25.1,29.68,ENE,67,1.0,13.0,42,0.00,,,0.00,Weather View 32 v70,2013-12-04 01:55:00,
2013-12-03 18:59:00,47.0,24.5,29.68,ENE,67,0.0,13.0,41,0.00,,,0.00,Weather View 32 v70,2013-12-04 01:59:00,
2013-12-03 19:04:00,47.0,24.5,29.67,NW,315,4.0,13.0,41,0.00,,,0.00,Weather View 32 v70,2013-12-04 02:04:00,
2013-12-03 19:09:00,47.0,23.9,29.67,NW,315,2.0,13.0,40,0.00,,,0.00,Weather View 32 v70,2013-12-04 02:09:00,
2013-12-03 19:14:00,47.0,23.9,29.67,WSW,247,3.0,13.0,40,0.00,,,0.00,Weather View 32 v70,2013-12-04 02:14:00,
2013-12-03 19:20:00,47.0,24.5,29.67,West,270,3.0,13.0,41,0.00,,,0.00,Weather View 32 v70,2013-12-04 02:20:00,
2013-12-03 19:24:00,47.0,24.5,29.67,WSW,247,2.0,10.0,41,0.00,,,0.00,Weather View 32 v70,2013-12-04 02:24:00,
2013-12-03 19:29:00,47.0,24.5,29.67,West,270,8.0,11.0,41,0.00,,,0.00,Weather View 32 v70,2013-12-04 02:29:00,
2013-12-03 19:34:00,47.0,23.9,29.67,West,270,7.0,12.0,40,0.00,,,0.00,Weather View 32 v70,2013-12-04 02:34:00,
2013-12-03 19:39:00,47.0,23.9,29.67,WSW,247,9.0,12.0,40,0.00,,,0.00,Weather View 32 v70,2013-12-04 02:39:00,
2013-12-03 19:44:00,47.0,23.9,29.67,SW,225,4.0,12.0,40,0.00,,,0.00,Weather View 32 v70,2013-12-04 02:44:00,
2013-12-03 19:49:00,47.0,23.9,29.67,SW,225,5.0,12.0,40,0.00,,,0.00,Weather View 32 v70,2013-12-04 02:49:00,
2013-12-03 19:54:00,47.0,23.9,29.67,SW,225,5.0,12.0,40,0.00,,,0.00,Weather View 32 v70,2013-12-04 02:54:00,
2013-12-03 19:59:00,47.0,23.9,29.67,SSW,202,5.0,13.0,40,0.00,,,0.00,Weather View 32 v70,2013-12-04 02:59:00,
2013-12-03 20:04:00,47.0,23.3,29.66,SW,225,7.0,15.0,39,0.00,,,0.00,Weather View 32 v70,2013-12-04 03:04:00,
2013-12-03 20:09:00,47.0,22.7,29.66,SW,225,11.0,16.0,38,0.00,,,0.00,Weather View 32 v70,2013-12-04 03:09:00,
2013-12-03 20:14:00,48.0,22.9,29.67,SW,225,8.0,16.0,37,0.00,,,0.00,Weather View 32 v70,2013-12-04 03:14:00,
2013-12-03 20:19:00,48.0,22.9,29.67,SW,225,9.0,16.0,37,0.00,,,0.00,Weather View 32 v70,2013-12-04 03:19:00,
2013-12-03 20:24:00,48.0,22.9,29.66,SW,225,8.0,19.0,37,0.00,,,0.00,Weather View 32 v70,2013-12-04 03:24:00,
2013-12-03 20:29:00,48.0,22.9,29.66,WSW,247,5.0,19.0,37,0.00,,,0.00,Weather View 32 v70,2013-12-04 03:29:00,
2013-12-03 20:34:00,48.0,23.6,29.67,West,270,4.0,19.0,38,0.00,,,0.00,Weather View 32 v70,2013-12-04 03:34:00,
2013-12-03 20:39:00,48.0,24.2,29.67,WSW,247,5.0,19.0,39,0.00,,,0.00,Weather View 32 v70,2013-12-04 03:39:00,
2013-12-03 20:44:00,48.0,24.8,29.67,WSW,247,5.0,19.0,40,0.00,,,0.00,Weather View 32 v70,2013-12-04 03:44:00,
2013-12-03 20:49:00,48.0,24.8,29.67,SW,225,4.0,19.0,40,0.00,,,0.00,Weather View 32 v70,2013-12-04 03:49:00,
2013-12-03 20:54:00,48.0,24.8,29.67,WSW,247,5.0,19.0,40,0.00,,,0.00,Weather View 32 v70,2013-12-04 03:54:00,
2013-12-03 20:59:00,47.0,23.9,29.67,SW,225,6.0,19.0,40,0.00,,,0.00,Weather View 32 v70,2013-12-04 03:59:00,
2013-12-03 21:04:00,48.0,24.8,29.67,SSW,202,7.0,19.0,40,0.00,,,0.00,Weather View 32 v70,2013-12-04 04:04:00,
2013-12-03 21:09:00,47.0,23.9,29.67,SW,225,9.0,19.0,40,0.00,,,0.00,Weather View 32 v70,2013-12-04 04:09:00,
2013-12-03 21:14:00,47.0,23.3,29.67,SW,225,8.0,19.0,39,0.00,,,0.00,Weather View 32 v70,2013-12-04 04:14:00,
2013-12-03 21:19:00,47.0,22.7,29.67,SSW,202,10.0,19.0,38,0.00,,,0.00,Weather View 32 v70,2013-12-04 04:19:00,
2013-12-03 21:24:00,47.0,22.7,29.67,SW,225,9.0,17.0,38,0.00,,,0.00,Weather View 32 v70,2013-12-04 04:24:00,
2013-12-03 21:29:00,47.0,22.7,29.68,SW,225,7.0,17.0,38,0.00,,,0.00,Weather View 32 v70,2013-12-04 04:29:00,
2013-12-03 21:34:00,47.0,22.7,29.68,West,270,5.0,17.0,38,0.00,,,0.00,Weather View 32 v70,2013-12-04 04:34:00,
2013-12-03 21:39:00,47.0,22.0,29.68,SW,225,8.0,17.0,37,0.00,,,0.00,Weather View 32 v70,2013-12-04 04:39:00,
2013-12-03 21:44:00,47.0,22.0,29.68,South,180,8.0,17.0,37,0.00,,,0.00,Weather View 32 v70,2013-12-04 04:44:00,
2013-12-03 21:49:00,47.0,22.0,29.68,SSW,202,11.0,17.0,37,0.00,,,0.00,Weather View 32 v70,2013-12-04 04:49:00,
2013-12-03 21:54:00,47.0,21.4,29.68,SW,225,6.0,17.0,36,0.00,,,0.00,Weather View 32 v70,2013-12-04 04:54:00,
2013-12-03 21:59:00,47.0,20.7,29.68,SW,225,12.0,17.0,35,0.00,,,0.00,Weather View 32 v70,2013-12-04 04:59:00,
2013-12-03 22:01:00,47.0,20.7,29.68,SW,225,10.0,17.0,35,0.00,,,0.00,Weather View 32 v70,2013-12-04 05:01:00,
2013-12-03 22:06:00,47.0,20.7,29.68,WSW,247,5.0,17.0,35,0.00,,,0.00,Weather View 32 v70,2013-12-04 05:06:00,
2013-12-03 22:11:00,47.0,20.7,29.68,SW,225,6.0,17.0,35,0.00,,,0.00,Weather View 32 v70,2013-12-04 05:11:00,
2013-12-03 22:16:00,47.0,20.7,29.68,SW,225,9.0,17.0,35,0.00,,,0.00,Weather View 32 v70,2013-12-04 05:16:00,
2013-12-03 22:21:00,46.0,19.8,29.68,SW,225,10.0,17.0,35,0.00,,,0.00,Weather View 32 v70,2013-12-04 05:21:00,
2013-12-03 22:26:00,46.0,20.5,29.69,SW,225,8.0,16.0,36,0.00,,,0.00,Weather View 32 v70,2013-12-04 05:26:00,
2013-12-03 22:31:00,46.0,21.1,29.69,SW,225,7.0,16.0,37,0.00,,,0.00,Weather View 32 v70,2013-12-04 05:31:00,
2013-12-03 22:36:00,46.0,21.1,29.69,SW,225,13.0,16.0,37,0.00,,,0.00,Weather View 32 v70,2013-12-04 05:36:00,
2013-12-03 22:41:00,46.0,21.1,29.69,West,270,2.0,17.0,37,0.00,,,0.00,Weather View 32 v70,2013-12-04 05:41:00,
2013-12-03 22:46:00,46.0,21.1,29.69,SW,225,14.0,17.0,37,0.00,,,0.00,Weather View 32 v70,2013-12-04 05:46:00,
2013-12-03 22:51:00,46.0,21.1,29.69,SW,225,13.0,17.0,37,0.00,,,0.00,Weather View 32 v70,2013-12-04 05:51:00,
2013-12-03 22:56:00,46.0,21.1,29.69,WSW,247,9.0,19.0,37,0.00,,,0.00,Weather View 32 v70,2013-12-04 05:56:00,
2013-12-03 23:01:00,46.0,21.1,29.69,SW,225,11.0,24.0,37,0.00,,,0.00,Weather View 32 v70,2013-12-04 06:01:00,
2013-12-03 23:06:00,46.0,21.1,29.70,SW,225,10.0,24.0,37,0.00,,,0.00,Weather View 32 v70,2013-12-04 06:06:00,
2013-12-03 23:10:00,46.0,21.8,29.70,SW,225,5.0,24.0,38,0.00,,,0.00,Weather View 32 v70,2013-12-04 06:10:00,
2013-12-03 23:15:00,46.0,21.8,29.70,SW,225,5.0,24.0,38,0.00,,,0.00,Weather View 32 v70,2013-12-04 06:15:00,
2013-12-03 23:20:00,46.0,21.8,29.70,SW,225,10.0,24.0,38,0.00,,,0.00,Weather View 32 v70,2013-12-04 06:20:00,
2013-12-03 23:25:00,46.0,21.8,29.71,SW,225,6.0,24.0,38,0.00,,,0.00,Weather View 32 v70,2013-12-04 06:25:00,
2013-12-03 23:30:00,45.0,20.9,29.71,SW,225,5.0,24.0,38,0.00,,,0.00,Weather View 32 v70,2013-12-04 06:30:00,
2013-12-03 23:35:00,45.0,21.5,29.70,SW,225,5.0,24.0,39,0.00,,,0.00,Weather View 32 v70,2013-12-04 06:35:00,
2013-12-03 23:40:00,45.0,22.1,29.70,SW,225,9.0,24.0,40,0.00,,,0.00,Weather View 32 v70,2013-12-04 06:40:00,
2013-12-03 23:45:00,45.0,22.1,29.70,SW,225,6.0,24.0,40,0.00,,,0.00,Weather View 32 v70,2013-12-04 06:45:00,
2013-12-03 23:50:00,45.0,22.1,29.70,SW,225,10.0,24.0,40,0.00,,,0.00,Weather View 32 v70,2013-12-04 06:50:00,
2013-12-03 23:55:00,45.0,22.1,29.70,SW,225,5.0,24.0,40,0.00,,,0.00,Weather View 32 v70,2013-12-04 06:55:00,